Time,TemperatureF,DewpointF,PressureIn,WindDirection,WindDirectionDegrees,WindSpeedMPH,WindSpeedGustMPH,Humidity,HourlyPrecipIn,Conditions,Clouds,dailyrainin,SoftwareType,DateUTC
2013-09-06 00:03:00,48.6,48.1,30.14,SE,135,0.0,-999.0,98,-99.99,,,0.00,Acu-Link.com,2013-09-06 04:03:00,
2013-09-06 00:18:00,48.4,47.9,30.14,South,180,0.0,-999.0,98,-99.99,,,0.00,Acu-Link.com,2013-09-06 04:18:00,
2013-09-06 00:33:00,47.8,47.3,30.14,SSE,157,0.0,-999.0,98,-99.99,,,0.00,Acu-Link.com,2013-09-06 04:33:00,
2013-09-06 00:48:00,47.8,47.3,30.14,SSE,157,0.0,-999.0,98,-99.99,,,0.00,Acu-Link.com,2013-09-06 04:48:00,
2013-09-06 01:04:00,47.7,47.2,30.15,SSE,157,0.0,-999.0,98,-99.99,,,0.00,Acu-Link.com,2013-09-06 05:04:00,
2013-09-06 01:19:00,47.5,47.0,30.15,SSE,157,0.0,-999.0,98,-99.99,,,0.00,Acu-Link.com,2013-09-06 05:19:00,
2013-09-06 01:34:00,47.3,46.8,30.16,SSE,157,0.0,-999.0,98,-99.99,,,0.00,Acu-Link.com,2013-09-06 05:34:00,
2013-09-06 01:50:00,46.9,46.4,30.15,SSE,157,0.0,-999.0,98,-99.99,,,0.00,Acu-Link.com,2013-09-06 05:50:00,
2013-09-06 02:05:00,46.4,45.9,30.16,SSE,157,0.0,-999.0,98,-99.99,,,0.00,Acu-Link.com,2013-09-06 06:05:00,
2013-09-06 02:20:00,46.2,45.7,30.15,SSE,157,0.0,-999.0,98,-99.99,,,0.00,Acu-Link.com,2013-09-06 06:20:00,
2013-09-06 02:35:00,46.0,45.5,30.15,SSE,157,0.0,-999.0,98,-99.99,,,0.00,Acu-Link.com,2013-09-06 06:35:00,
2013-09-06 02:51:00,45.7,45.2,30.16,SSE,157,0.0,-999.0,98,-99.99,,,0.00,Acu-Link.com,2013-09-06 06:51:00,
2013-09-06 03:06:00,45.5,45.0,30.15,SSE,157,0.0,-999.0,98,-99.99,,,0.00,Acu-Link.com,2013-09-06 07:06:00,
2013-09-06 03:21:00,45.3,44.8,30.16,SSE,157,0.0,-999.0,98,-99.99,,,0.00,Acu-Link.com,2013-09-06 07:21:00,
2013-09-06 03:36:00,45.1,44.6,30.16,SSE,157,0.0,-999.0,98,-99.99,,,0.00,Acu-Link.com,2013-09-06 07:36:00,
2013-09-06 03:52:00,45.0,44.5,30.16,SSE,157,0.0,-999.0,98,-99.99,,,0.00,Acu-Link.com,2013-09-06 07:52:00,
2013-09-06 04:07:00,44.8,44.3,30.16,SSE,157,0.0,-999.0,98,-99.99,,,0.00,Acu-Link.com,2013-09-06 08:07:00,
2013-09-06 04:22:00,44.8,44.3,30.16,SSE,157,0.0,-999.0,98,-99.99,,,0.00,Acu-Link.com,2013-09-06 08:22:00,
2013-09-06 04:37:00,44.8,44.3,30.17,SSE,157,0.0,-999.0,98,-99.99,,,0.00,Acu-Link.com,2013-09-06 08:37:00,
2013-09-06 04:53:00,44.4,43.9,30.17,SSE,157,0.0,-999.0,98,-99.99,,,0.00,Acu-Link.com,2013-09-06 08:53:00,
2013-09-06 05:08:00,44.4,43.9,30.17,SSE,157,0.0,-999.0,98,-99.99,,,0.00,Acu-Link.com,2013-09-06 09:08:00,
2013-09-06 05:23:00,44.1,43.6,30.18,SSE,157,0.0,-999.0,98,-99.99,,,0.00,Acu-Link.com,2013-09-06 09:23:00,
2013-09-06 05:38:00,44.1,43.6,30.17,SSE,157,0.0,-999.0,98,-99.99,,,0.00,Acu-Link.com,2013-09-06 09:38:00,
2013-09-06 05:53:00,43.5,43.0,30.17,SSE,157,0.0,-999.0,98,-99.99,,,0.00,Acu-Link.com,2013-09-06 09:53:00,
2013-09-06 06:09:00,43.5,43.0,30.18,SSE,157,0.0,-999.0,98,-99.99,,,0.00,Acu-Link.com,2013-09-06 10:09:00,
2013-09-06 06:24:00,43.3,42.8,30.20,SSE,157,0.0,-999.0,98,-99.99,,,0.00,Acu-Link.com,2013-09-06 10:24:00,
2013-09-06 06:39:00,43.2,42.7,30.19,SSE,157,0.0,-999.0,98,-99.99,,,0.00,Acu-Link.com,2013-09-06 10:39:00,
2013-09-06 06:55:00,43.2,42.7,30.20,SSE,157,0.0,-999.0,98,-99.99,,,0.00,Acu-Link.com,2013-09-06 10:55:00,
2013-09-06 07:10:00,43.2,42.7,30.19,SSE,157,0.0,-999.0,98,-99.99,,,0.00,Acu-Link.com,2013-09-06 11:10:00,
2013-09-06 07:25:00,43.5,43.0,30.20,SSE,157,0.0,-999.0,98,-99.99,,,0.00,Acu-Link.com,2013-09-06 11:25:00,
2013-09-06 07:41:00,43.9,43.4,30.20,SSE,157,0.0,-999.0,98,-99.99,,,0.00,Acu-Link.com,2013-09-06 11:41:00,
2013-09-06 07:56:00,44.6,44.1,30.20,SSE,157,0.0,-999.0,98,-99.99,,,0.00,Acu-Link.com,2013-09-06 11:56:00,
2013-09-06 08:11:00,45.5,45.0,30.20,SSE,157,0.0,-999.0,98,-99.99,,,0.00,Acu-Link.com,2013-09-06 12:11:00,
2013-09-06 08:26:00,47.3,46.8,30.20,South,180,0.0,-999.0,98,-99.99,,,0.00,Acu-Link.com,2013-09-06 12:26:00,
2013-09-06 08:42:00,49.8,49.3,30.20,ESE,112,0.0,-999.0,98,-99.99,,,0.00,Acu-Link.com,2013-09-06 12:42:00,
2013-09-06 08:57:00,52.7,52.2,30.20,ESE,112,0.0,-999.0,98,-99.99,,,0.00,Acu-Link.com,2013-09-06 12:57:00,
2013-09-06 09:12:00,56.3,53.4,30.21,SE,135,0.0,-999.0,90,-99.99,,,0.00,Acu-Link.com,2013-09-06 13:12:00,
2013-09-06 09:28:00,61.5,54.2,30.21,NW,315,0.0,-999.0,77,-99.99,,,0.00,Acu-Link.com,2013-09-06 13:28:00,
2013-09-06 09:43:00,62.6,53.8,30.20,NW,315,0.0,-999.0,73,-99.99,,,0.00,Acu-Link.com,2013-09-06 13:43:00,
2013-09-06 09:58:00,65.1,52.6,30.20,South,180,1.7,-999.0,64,-99.99,,,0.00,Acu-Link.com,2013-09-06 13:58:00,
2013-09-06 10:13:00,65.5,53.0,30.20,ESE,112,1.7,-999.0,64,-99.99,,,0.00,Acu-Link.com,2013-09-06 14:13:00,
2013-09-06 10:29:00,66.0,53.0,30.21,SW,225,1.7,-999.0,63,-99.99,,,0.00,Acu-Link.com,2013-09-06 14:29:00,
2013-09-06 10:44:00,66.9,53.9,30.21,South,180,1.1,-999.0,63,-99.99,,,0.00,Acu-Link.com,2013-09-06 14:44:00,
2013-09-06 10:59:00,67.1,51.8,30.20,SE,135,0.0,-999.0,58,-99.99,,,0.00,Acu-Link.com,2013-09-06 14:59:00,
2013-09-06 11:14:00,67.6,53.7,30.20,North,0,0.0,-999.0,61,-99.99,,,0.00,Acu-Link.com,2013-09-06 15:14:00,
2013-09-06 11:29:00,68.9,52.5,30.19,East,90,4.2,-999.0,56,-99.99,,,0.00,Acu-Link.com,2013-09-06 15:29:00,
2013-09-06 11:44:00,69.1,52.7,30.19,ESE,112,2.7,-999.0,56,-99.99,,,0.00,Acu-Link.com,2013-09-06 15:44:00,
2013-09-06 12:00:00,69.1,53.7,30.18,ESE,112,2.2,-999.0,58,-99.99,,,0.00,Acu-Link.com,2013-09-06 16:00:00,
2013-09-06 12:15:00,68.5,53.6,30.17,West,270,1.7,-999.0,59,-99.99,,,0.00,Acu-Link.com,2013-09-06 16:15:00,
2013-09-06 12:30:00,68.5,52.7,30.16,SW,225,3.2,-999.0,57,-99.99,,,0.00,Acu-Link.com,2013-09-06 16:30:00,
2013-09-06 12:46:00,67.8,53.4,30.16,NNW,337,2.7,-999.0,60,-99.99,,,0.00,Acu-Link.com,2013-09-06 16:46:00,
2013-09-06 13:01:00,68.9,54.9,30.15,NNE,22,5.3,-999.0,61,-99.99,,,0.00,Acu-Link.com,2013-09-06 17:01:00,
2013-09-06 13:16:00,70.0,55.5,30.14,ESE,112,1.1,-999.0,60,-99.99,,,0.00,Acu-Link.com,2013-09-06 17:16:00,
2013-09-06 13:31:00,68.4,55.7,30.13,NW,315,1.7,-999.0,64,-99.99,,,0.00,Acu-Link.com,2013-09-06 17:31:00,
2013-09-06 13:47:00,69.6,56.4,30.15,West,270,0.0,-999.0,63,-99.99,,,0.00,Acu-Link.com,2013-09-06 17:47:00,
2013-09-06 14:02:00,70.7,56.6,30.13,NNW,337,2.2,-999.0,61,-99.99,,,0.00,Acu-Link.com,2013-09-06 18:02:00,
2013-09-06 14:17:00,70.7,56.6,30.12,WSW,247,2.2,-999.0,61,-99.99,,,0.00,Acu-Link.com,2013-09-06 18:17:00,
2013-09-06 14:33:00,72.1,57.4,30.11,NW,315,3.7,-999.0,60,-99.99,,,0.00,Acu-Link.com,2013-09-06 18:33:00,
2013-09-06 14:48:00,71.6,56.0,30.10,SSW,202,1.7,-999.0,58,-99.99,,,0.00,Acu-Link.com,2013-09-06 18:48:00,
2013-09-06 15:03:00,72.5,56.9,30.11,SSE,157,0.0,-999.0,58,-99.99,,,0.00,Acu-Link.com,2013-09-06 19:03:00,
2013-09-06 15:19:00,72.5,55.9,30.08,WNW,292,3.2,-999.0,56,-99.99,,,0.00,Acu-Link.com,2013-09-06 19:19:00,
2013-09-06 15:34:00,72.3,54.7,30.08,West,270,2.2,-999.0,54,-99.99,,,0.00,Acu-Link.com,2013-09-06 19:34:00,
2013-09-06 15:49:00,72.7,53.0,30.08,ESE,112,2.7,-999.0,50,-99.99,,,0.00,Acu-Link.com,2013-09-06 19:49:00,
2013-09-06 16:04:00,71.4,54.4,30.08,West,270,1.7,-999.0,55,-99.99,,,0.00,Acu-Link.com,2013-09-06 20:04:00,
2013-09-06 16:20:00,70.3,54.8,30.07,SW,225,0.0,-999.0,58,-99.99,,,0.00,Acu-Link.com,2013-09-06 20:20:00,
2013-09-06 16:35:00,69.8,52.9,30.07,SW,225,1.1,-999.0,55,-99.99,,,0.00,Acu-Link.com,2013-09-06 20:35:00,
2013-09-06 16:50:00,73.2,54.5,30.06,SSW,202,0.0,-999.0,52,-99.99,,,0.00,Acu-Link.com,2013-09-06 20:50:00,
2013-09-06 17:05:00,72.3,52.6,30.07,ESE,112,1.1,-999.0,50,-99.99,,,0.00,Acu-Link.com,2013-09-06 21:05:00,
2013-09-06 17:21:00,72.7,55.1,30.06,NE,45,0.0,-999.0,54,-99.99,,,0.00,Acu-Link.com,2013-09-06 21:21:00,
2013-09-06 17:36:00,72.0,53.4,30.06,NW,315,0.0,-999.0,52,-99.99,,,0.00,Acu-Link.com,2013-09-06 21:36:00,
2013-09-06 17:51:00,71.8,53.2,30.06,SSE,157,0.0,-999.0,52,-99.99,,,0.00,Acu-Link.com,2013-09-06 21:51:00,
2013-09-06 18:06:00,70.7,53.2,30.07,SSE,157,0.0,-999.0,54,-99.99,,,0.00,Acu-Link.com,2013-09-06 22:06:00,
2013-09-06 18:22:00,69.6,53.7,30.07,SSE,157,0.0,-999.0,57,-99.99,,,0.00,Acu-Link.com,2013-09-06 22:22:00,
2013-09-06 18:37:00,67.8,55.2,30.07,SW,225,0.0,-999.0,64,-99.99,,,0.00,Acu-Link.com,2013-09-06 22:37:00,
2013-09-06 18:52:00,66.6,54.9,30.05,SSE,157,0.0,-999.0,66,-99.99,,,0.00,Acu-Link.com,2013-09-06 22:52:00,
2013-09-06 19:08:00,65.5,53.4,30.05,WSW,247,0.0,-999.0,65,-99.99,,,0.00,Acu-Link.com,2013-09-06 23:08:00,
2013-09-06 19:23:00,64.6,53.8,30.04,South,180,0.0,-999.0,68,-99.99,,,0.00,Acu-Link.com,2013-09-06 23:23:00,
2013-09-06 19:38:00,63.0,53.4,30.05,South,180,0.0,-999.0,71,-99.99,,,0.00,Acu-Link.com,2013-09-06 23:38:00,
2013-09-06 19:54:00,61.3,52.6,30.04,SSE,157,0.0,-999.0,73,-99.99,,,0.00,Acu-Link.com,2013-09-06 23:54:00,
2013-09-06 20:09:00,60.3,52.0,30.03,WNW,292,0.0,-999.0,74,-99.99,,,0.00,Acu-Link.com,2013-09-07 00:09:00,
2013-09-06 20:24:00,59.2,51.3,30.03,South,180,0.0,-999.0,75,-99.99,,,0.00,Acu-Link.com,2013-09-07 00:24:00,
2013-09-06 20:40:00,58.6,51.8,30.04,SSE,157,0.0,-999.0,78,-99.99,,,0.00,Acu-Link.com,2013-09-07 00:40:00,
2013-09-06 20:55:00,58.1,51.6,30.03,SSE,157,0.0,-999.0,79,-99.99,,,0.00,Acu-Link.com,2013-09-07 00:55:00,
2013-09-06 21:10:00,57.6,52.1,30.02,SSE,157,0.0,-999.0,82,-99.99,,,0.00,Acu-Link.com,2013-09-07 01:10:00,
2013-09-06 21:26:00,57.4,52.6,30.02,SSE,157,0.0,-999.0,84,-99.99,,,0.00,Acu-Link.com,2013-09-07 01:26:00,
2013-09-06 21:41:00,57.0,53.2,30.02,South,180,0.0,-999.0,87,-99.99,,,0.00,Acu-Link.com,2013-09-07 01:41:00,
2013-09-06 21:56:00,57.0,53.2,30.02,SSE,157,0.0,-999.0,87,-99.99,,,0.00,Acu-Link.com,2013-09-07 01:56:00,
2013-09-06 22:12:00,56.8,53.6,30.02,South,180,0.0,-999.0,89,-99.99,,,0.00,Acu-Link.com,2013-09-07 02:12:00,
2013-09-06 22:27:00,56.5,53.6,30.01,SSE,157,0.0,-999.0,90,-99.99,,,0.00,Acu-Link.com,2013-09-07 02:27:00,
2013-09-06 22:42:00,56.5,53.9,30.01,South,180,0.0,-999.0,91,-99.99,,,0.00,Acu-Link.com,2013-09-07 02:42:00,
2013-09-06 22:57:00,56.5,54.2,30.01,South,180,0.0,-999.0,92,-99.99,,,0.00,Acu-Link.com,2013-09-07 02:57:00,
2013-09-06 23:13:00,56.3,54.6,30.00,South,180,0.0,-999.0,94,-99.99,,,0.00,Acu-Link.com,2013-09-07 03:13:00,
2013-09-06 23:28:00,55.9,54.2,30.00,South,180,0.0,-999.0,94,-99.99,,,0.00,Acu-Link.com,2013-09-07 03:28:00,
2013-09-06 23:43:00,55.8,55.2,30.00,SSE,157,0.0,-999.0,98,-99.99,,,0.00,Acu-Link.com,2013-09-07 03:43:00,
2013-09-06 23:59:00,55.6,55.0,30.00,SSE,157,0.0,-999.0,98,-99.99,,,0.00,Acu-Link.com,2013-09-07 03:59:00,